Weather History for East Milton, MA

Change the Weather History Date:

Saturday, July 6, 2013

  Actual Average (KBOS) Record (KBOS)
Temperature  
Mean Temperature 81 °F 73 °F  
Max Temperature 90 °F 81 °F 101 °F (1911)
Min Temperature 73 °F 65 °F 50 °F (1879)
Degree Days  
Heating Degree Days 0 0  
Month to date heating degree days 0  
Since 1 June heating degree days 55  
Since 1 July heating degree days 0  
Cooling Degree Days 16 8  
Month to date cooling degree days 47  
Year to date cooling degree days 213  
Since 1 June cooling degree days 183  
Growing Degree Days 31 (Base 50)    
Moisture  
Dew Point 70 °F    
Average Humidity 68    
Maximum Humidity 87    
Minimum Humidity 55    
Precipitation  
Precipitation 0.00 in 0.09 in 2.04 in (2005)
Month to date precipitation 0.54  
Year to date precipitation 22.38  
Sea Level Pressure  
Sea Level Pressure 30.07 in    
Wind  
Wind Speed 11 mph (West)    
Max Wind Speed 16 mph    
Max Gust Speed 22 mph    
T = Trace of Precipitation, MM = Missing Value Source: NWS Daily Summary

Daily Weather History Graph

Daily Weather History Graph

Search for Another Location

Airport:

Trip Planner

Search our weather history database for the weather conditions in past years. The results will help you decide how hot, cold, wet, or windy it might be!

Date:

Astronomy

Jul. 06, 2013 Rise Set
Actual Time 5:14 AM EDT 8:23 PM EDT
Civil Twilight 4:40 AM EDT 8:57 PM EDT
Nautical Twilight 3:56 AM EDT 9:41 PM EDT
Astronomical Twilight 3:04 AM EDT 10:33 PM EDT
Moon 3:59 AM EDT (7/6) 7:01 PM EDT (7/6)
Length of Visible Light 16h 16m
Length of Day
15h 08m
Waning Crescent, 2% of the Moon is Illuminated
Jul 6
Waning Crescent
Jul 8
New
Jul 15
First Quarter
Jul 22
Full
Jul 29
Last Quarter

Hourly Weather History & Observations

Time (EDT) Temp. Heat Index Dew Point Humidity Pressure Visibility Wind Dir Wind Speed Gust Speed Precip Events Conditions
12:54 AM 77.0 °F - 70.0 °F 79% 30.11 in - SW 9.2 mph - N/A   Unknown
1:54 AM 75.9 °F - 70.0 °F 82% 30.11 in - WSW 8.1 mph - N/A   Unknown
2:54 AM 75.9 °F - 70.0 °F 82% 30.10 in - WSW 10.4 mph - N/A   Unknown
3:54 AM 75.0 °F - 70.0 °F 84% 30.10 in - WSW 11.5 mph - N/A   Unknown
4:54 AM 73.9 °F - 70.0 °F 87% 30.10 in - West 12.7 mph 18.4 mph N/A   Unknown
5:54 AM 73.9 °F - 70.0 °F 87% 30.11 in - WSW 12.7 mph - N/A   Unknown
6:54 AM 75.9 °F - 70.0 °F 82% 30.11 in - WSW 10.4 mph - N/A   Unknown
7:54 AM 79.0 °F - 72.0 °F 79% 30.12 in - WSW 5.8 mph - N/A   Unknown
8:54 AM 82.9 °F 88.0 °F 72.0 °F 69% 30.10 in - West 10.4 mph - N/A   Unknown
9:54 AM 84.9 °F 90.7 °F 72.0 °F 65% 30.09 in - West 9.2 mph 19.6 mph N/A   Unknown
10:54 AM 84.9 °F 90.7 °F 72.0 °F 65% 30.09 in - West 9.2 mph - N/A   Unknown
11:54 AM 86.0 °F 91.5 °F 71.1 °F 61% 30.08 in - WNW 11.5 mph 20.7 mph N/A   Unknown
12:54 PM 88.0 °F 92.9 °F 70.0 °F 55% 30.06 in - WNW 15.0 mph 19.6 mph N/A   Unknown
1:54 PM 89.1 °F 95.0 °F 71.1 °F 55% 30.05 in - West 15.0 mph 21.9 mph N/A   Unknown
2:54 PM 89.1 °F 95.0 °F 71.1 °F 55% 30.05 in - WNW 16.1 mph 21.9 mph N/A   Unknown
3:54 PM 88.0 °F 93.8 °F 71.1 °F 57% 30.05 in - WNW 11.5 mph 18.4 mph N/A   Unknown
4:54 PM 87.1 °F 91.3 °F 69.1 °F 55% 30.03 in - West 11.5 mph 21.9 mph N/A   Unknown
5:54 PM 86.0 °F 90.1 °F 69.1 °F 57% 30.02 in - West 11.5 mph 18.4 mph N/A   Unknown
6:54 PM 84.9 °F 88.2 °F 68.0 °F 57% 30.02 in - West 13.8 mph - N/A   Unknown
7:54 PM 82.0 °F 84.9 °F 68.0 °F 62% 30.02 in - WNW 9.2 mph - N/A   Unknown
8:54 PM 80.1 °F 82.7 °F 68.0 °F 67% 30.04 in - WNW 10.4 mph - N/A   Unknown
9:54 PM 79.0 °F - 66.9 °F 66% 30.05 in - WNW 12.7 mph - N/A   Unknown
10:54 PM 78.1 °F - 64.9 °F 64% 30.05 in - WNW 12.7 mph - N/A   Unknown
11:54 PM 77.0 °F - 64.9 °F 66% 30.05 in - WNW 9.2 mph - N/A   Unknown